Theta_e
315 315 315 315 315 316 316 315 315 315 315 316 317 318 317 317 316 316 315 314 313 312 312 311 311 311 311 311 312 312 312 312 312 312 312 312 312 312 311 310 308 307 305 305 304 304 304 304 304 304 304 304 304 305 305 306 307 307 307 307 307 306 305 305 304 305 305 306 307 307 307 308 307 307 306 306 305 305 305 305 305 304 304 304 304 304
314 314 314 314 314 314 314 314 314 314 315 316 317 318 317 316 316 315 314 314 313 312 311 311 310 310 310 311 311 311 311 312 312 312 312 312 311 311 310 309 307 306 305 304 304 304 304 304 304 304 304 304 304 305 305 305 306 306 306 306 305 305 304 304 304 304 304 304 305 305 305 305 305 305 305 304 304 304 304 304 304 304 303 303 303 303
313 313 313 313 313 314 313 313 313 314 315 317 317 317 317 316 316 315 314 313 312 312 311 310 310 310 310 310 310 311 311 311 311 311 311 311 311 310 309 308 306 305 304 304 304 304 304 304 304 304 304 304 304 304 305 305 305 305 305 305 305 304 304 304 304 304 304 304 304 304 304 303 303 303 303 303 303 303 303 303 303 302 302 301 301 302
312 312 313 313 314 314 313 313 314 315 316 316 316 316 316 316 315 315 314 313 312 311 310 310 310 309 309 310 310 310 310 310 311 311 311 310 310 309 308 307 306 305 304 304 304 304 304 304 304 304 304 304 304 304 304 304 304 304 304 304 304 304 303 303 303 303 303 303 303 302 302 302 302 302 302 302 302 302 302 301 301 300 300 299 299 299
312 313 313 314 314 314 313 313 314 315 316 316 315 315 315 315 315 315 313 312 311 310 310 309 309 309 309 309 309 309 309 310 310 310 310 310 309 308 307 306 305 304 304 304 304 304 304 304 303 303 303 303 303 303 303 303 304 304 304 303 303 303 303 303 302 302 302 302 301 301 301 301 301 301 300 300 300 300 299 299 298 298 297 297 297 297
312 313 313 313 313 313 313 313 314 314 315 315 315 315 315 315 314 313 312 310 309 309 309 309 308 308 308 308 308 308 309 309 309 309 309 309 308 307 306 305 304 304 304 304 303 303 303 303 303 303 303 303 303 303 303 303 303 303 303 303 303 302 302 302 301 301 300 300 300 299 299 299 299 299 298 298 298 297 297 296 296 295 295 294 294 294
313 313 313 314 313 313 313 313 313 314 314 314 315 315 315 314 313 312 310 309 308 308 308 308 308 308 307 308 308 308 308 308 309 309 308 308 307 306 305 304 304 303 303 303 303 303 303 303 303 303 303 303 303 303 303 303 303 303 302 302 301 301 300 300 299 299 298 298 297 297 297 297 296 296 296 295 295 295 294 294 293 293 293 292 292 292
313 314 314 314 314 314 313 313 313 313 314 314 315 315 314 313 311 310 309 308 308 307 307 307 307 307 307 307 307 307 308 308 308 308 308 307 306 305 304 304 303 303 303 303 303 303 303 303 302 302 302 302 302 302 302 302 301 301 300 300 299 298 298 297 297 296 296 295 295 294 294 294 294 293 293 293 293 292 292 292 291 291 291 291 291 291
314 314 315 315 315 314 314 314 314 314 314 314 314 314 313 312 310 309 308 308 307 307 307 307 307 307 307 307 307 307 307 307 307 307 306 306 305 305 304 303 303 303 303 302 302 302 302 302 302 302 301 301 301 301 300 299 299 298 297 297 296 295 295 294 294 293 293 293 292 292 292 292 292 291 291 291 291 291 291 291 291 291 290 290 290 290
314 314 314 314 314 314 314 314 314 315 315 314 313 312 312 311 310 309 308 308 308 307 307 307 306 307 307 307 307 307 307 306 306 306 305 305 304 304 303 303 302 302 302 302 302 302 302 301 301 301 300 299 299 298 297 296 295 295 294 294 293 293 292 292 291 291 291 291 291 291 290 290 290 290 290 290 290 290 290 290 290 290 290 290 290 290
314 314 314 314 314 314 313 313 314 313 313 312 311 311 310 310 310 309 309 308 308 308 307 307 307 307 307 307 307 307 306 306 306 305 305 304 304 303 303 302 302 302 302 302 301 301 301 300 299 298 298 296 295 294 294 293 292 292 292 291 291 291 290 290 290 290 290 290 290 290 290 290 290 290 290 290 290 290 290 290 290 290 290 290 290 290
313 313 313 313 313 313 313 313 313 312 311 310 310 309 309 310 310 310 309 308 308 308 308 307 307 307 307 307 307 307 307 306 306 305 304 303 303 302 302 302 302 301 301 301 300 300 299 298 297 296 295 294 293 292 291 291 290 290 290 290 290 290 290 290 290 290 290 290 290 290 290 290 290 290 290 290 290 290 290 290 290 290 290 290 290 290
312 313 313 313 313 313 313 313 312 311 310 310 310 310 310 311 311 310 309 308 308 308 308 308 307 307 307 307 307 307 306 306 305 304 303 302 302 302 301 301 301 300 300 300 299 298 297 296 294 293 292 292 291 291 290 290 289 289 289 289 289 289 289 289 289 289 289 289 289 290 290 290 290 290 290 290 290 290 290 290 290 290 290 290 290 290
312 312 312 312 313 313 313 313 313 312 312 311 310 310 309 310 311 310 309 309 308 308 308 307 307 307 306 306 306 306 305 305 304 303 302 302 302 301 301 301 300 300 299 298 297 296 295 294 292 292 291 290 290 290 290 289 289 289 289 289 289 289 289 289 289 289 289 289 289 289 289 289 289 289 290 290 290 290 290 290 290 290 290 290 290 290
311 312 312 312 312 313 313 313 313 313 313 312 311 310 310 310 310 310 309 309 308 308 307 307 306 306 306 306 305 305 304 304 303 303 302 302 301 301 300 300 300 299 298 297 296 294 293 292 291 291 290 290 290 290 290 289 289 289 289 289 289 289 289 289 289 289 289 289 289 289 289 289 289 289 289 290 290 290 290 290 290 290 290 290 290 290
311 312 312 312 313 313 313 313 313 313 313 312 311 310 310 310 310 309 309 309 308 308 307 306 306 306 305 305 305 304 304 303 303 302 301 301 301 300 300 299 298 298 296 295 294 293 292 291 291 290 290 290 290 290 290 289 289 289 289 289 289 289 289 289 289 289 289 289 289 289 289 289 289 289 289 290 290 290 290 290 290 290 290 290 290 290
312 312 312 312 312 312 312 312 312 312 312 312 311 311 310 310 309 309 308 308 308 307 306 306 306 305 305 304 304 304 304 303 302 301 301 301 300 299 299 298 297 296 295 294 293 292 291 291 290 290 290 290 290 289 289 289 289 289 289 289 289 289 289 289 289 289 289 289 289 289 289 289 289 289 289 289 290 290 290 290 290 290 290 290 290 290
312 312 312 312 312 312 312 312 311 311 311 311 311 310 310 309 308 308 307 307 307 306 306 305 305 305 305 304 304 304 303 302 302 301 300 300 299 299 298 297 296 295 293 292 292 291 291 290 290 290 290 289 289 289 289 289 289 289 289 289 289 289 289 289 289 288 289 289 289 289 289 289 289 289 289 289 290 290 290 290 290 290 290 290 290 290
311 311 311 311 311 311 311 311 311 311 311 311 310 310 309 308 307 307 306 306 306 305 305 305 304 304 304 304 304 304 302 301 301 300 299 299 298 298 296 295 294 293 292 291 291 291 290 290 290 289 289 289 289 289 289 289 289 289 289 289 289 289 288 288 288 288 289 289 289 289 289 289 289 289 289 289 289 290 290 290 290 290 290 290 290 290
310 311 311 310 310 310 310 310 310 310 310 310 309 309 308 307 307 306 306 305 305 304 304 304 304 303 303 304 304 303 301 300 300 299 298 298 297 296 295 294 293 292 291 291 290 290 290 289 289 289 289 289 289 288 288 288 288 288 288 288 288 288 288 288 288 288 289 289 289 289 289 289 289 289 289 289 289 289 290 290 290 290 290 290 290 290
310 310 310 310 309 309 310 310 310 309 309 309 308 308 307 307 306 305 305 305 304 303 303 303 302 303 303 304 303 302 300 300 299 298 297 297 296 295 293 292 291 291 290 290 290 289 289 289 288 288 288 288 288 288 288 288 288 288 288 288 288 288 288 288 288 288 288 289 289 289 289 289 289 289 289 289 289 290 290 290 290 290 290 290 290 290
309 309 309 309 309 309 309 309 309 309 308 308 308 308 307 306 305 304 304 304 303 302 302 302 302 303 303 303 302 300 300 299 298 297 296 295 294 293 292 291 290 290 290 289 289 289 288 288 288 288 288 288 288 288 288 288 288 288 288 288 288 288 288 288 288 288 288 288 288 288 288 289 289 289 289 289 289 290 290 290 290 290 290 290 290 290
309 309 309 308 308 308 308 308 308 308 308 308 308 307 306 305 305 304 304 303 303 302 302 303 303 303 302 301 301 300 299 298 297 296 294 293 292 291 291 290 290 289 289 289 288 288 288 288 288 288 288 288 288 288 288 288 288 288 288 288 288 288 288 288 288 288 288 288 288 288 288 289 289 289 289 289 289 290 290 290 290 290 290 290 290 290
308 308 308 308 308 308 308 308 308 308 307 307 307 306 306 305 304 304 303 303 302 302 302 302 302 301 300 300 299 299 298 297 295 294 293 291 291 290 290 289 289 289 289 288 288 288 288 288 288 288 288 288 288 288 288 288 288 288 288 288 288 288 288 288 288 288 288 288 288 288 288 289 289 289 289 289 289 289 290 290 290 290 290 290 290 290
307 307 307 307 307 307 307 307 307 307 307 306 306 306 305 304 304 303 302 302 301 301 301 301 300 300 299 298 298 297 296 295 293 292 291 290 290 289 289 289 288 288 288 288 288 288 288 288 288 288 288 288 288 288 288 288 288 288 288 288 288 288 288 288 288 288 288 288 288 288 288 289 289 289 289 289 289 289 290 290 290 290 290 290 290 290
306 306 306 306 306 306 306 306 305 305 305 305 305 304 304 303 302 302 301 301 300 300 300 299 299 298 298 297 296 295 294 293 291 290 290 289 289 289 288 288 288 288 288 288 288 288 288 288 288 288 288 288 288 288 288 288 288 288 288 288 288 288 288 288 288 288 288 288 288 288 288 289 289 289 289 289 289 289 289 290 290 290 290 290 290 290
305 305 305 305 305 305 304 304 304 304 303 303 303 302 302 302 301 300 300 299 299 299 298 298 297 297 296 295 294 294 292 291 290 289 289 289 288 288 288 288 288 288 287 288 288 288 288 288 288 288 288 288 288 288 288 288 288 288 288 288 288 288 288 288 288 288 288 288 288 288 289 289 289 289 289 289 289 289 289 289 290 290 290 290 290 290
304 304 304 304 304 304 303 303 302 302 301 301 301 300 300 300 299 299 298 298 297 297 296 296 295 295 294 294 293 292 291 290 290 289 288 288 288 288 288 288 288 288 287 287 288 288 288 288 288 287 287 288 288 287 287 287 287 288 288 288 288 288 288 288 288 288 288 288 288 288 289 289 289 289 289 289 289 289 289 289 289 290 290 290 290 290
301 301 301 302 302 302 302 301 301 300 299 299 298 298 298 298 297 297 297 296 295 295 294 294 293 293 292 292 291 290 290 289 289 289 288 288 288 288 287 287 288 288 287 287 287 287 288 288 288 287 287 287 287 287 287 287 287 287 287 288 288 288 288 288 288 288 288 288 288 289 289 289 289 289 289 289 289 289 289 289 289 290 290 290 290 290
299 298 299 299 299 299 299 299 298 298 297 297 296 296 296 295 295 295 294 294 293 293 293 292 292 291 291 290 290 290 289 289 289 289 288 288 288 288 287 287 287 287 288 287 288 288 288 288 288 288 287 287 287 287 287 287 287 287 287 287 288 288 288 288 288 288 288 288 288 288 289 289 289 289 289 289 289 289 289 289 289 290 290 290 290 290
296 296 295 295 295 296 296 296 296 295 295 294 294 294 293 293 293 292 292 292 292 291 291 291 290 290 290 289 289 289 289 289 289 289 288 288 288 288 287 287 288 288 288 288 288 288 288 288 288 288 288 288 288 288 288 288 288 288 288 288 288 288 288 288 288 288 288 288 288 288 289 289 289 289 289 289 289 289 289 289 289 290 290 290 290 290
294 293 292 292 292 292 293 293 293 292 292 292 292 292 291 291 291 291 291 291 290 290 290 290 290 289 289 289 289 289 289 289 289 289 288 288 288 288 288 288 288 288 288 288 288 288 288 288 288 289 289 289 288 288 288 288 288 288 288 288 288 288 288 288 288 288 288 288 288 288 288 289 289 289 289 289 289 289 289 289 289 290 290 290 290 290
291 291 290 290 290 290 290 290 290 290 290 290 290 290 290 290 290 290 290 290 290 290 290 289 289 289 289 288 289 289 289 289 289 289 288 288 288 288 288 288 288 288 288 288 288 288 288 288 288 289 289 289 289 288 288 288 288 288 288 288 288 288 288 288 288 288 288 288 288 288 288 288 288 289 289 289 289 289 289 289 289 289 290 290 290 290
290 289 288 288 288 289 289 289 289 289 289 289 289 289 289 289 289 289 289 289 289 289 289 289 289 289 289 288 288 289 289 288 288 288 288 288 288 288 288 288 288 288 288 288 288 288 288 288 288 288 288 288 288 288 288 288 288 288 288 288 288 288 288 288 288 288 288 288 288 288 288 288 288 288 288 288 289 289 289 289 289 289 289 290 290 290
288 288 288 288 288 288 288 288 288 288 288 288 288 288 288 288 288 288 288 289 289 289 289 289 289 289 289 288 288 288 289 288 288 288 288 288 288 288 288 288 288 288 288 288 288 288 288 288 288 288 287 287 288 288 288 288 288 288 288 288 288 288 288 288 288 288 288 288 288 288 288 288 288 288 288 288 288 289 289 289 289 289 289 289 290 290
288 288 288 288 288 288 288 288 288 288 288 288 288 288 288 288 288 288 288 288 288 288 288 288 288 288 288 288 288 288 288 288 288 288 288 288 288 288 288 288 288 288 288 288 288 288 288 287 287 287 287 287 287 288 288 288 288 288 288 288 288 288 287 287 287 287 287 288 288 288 288 288 288 288 288 288 288 288 288 289 289 289 289 289 290 290
288 288 288 288 288 288 287 287 287 287 288 288 288 288 288 288 288 288 288 288 288 288 288 288 288 288 288 289 288 288 288 288 288 288 288 288 288 288 288 288 288 288 288 288 288 288 288 287 287 287 287 287 287 287 288 288 288 288 288 288 288 287 287 287 287 287 287 287 287 287 287 287 287 287 287 288 288 288 288 288 289 289 289 289 289 290
288 287 287 288 288 287 287 287 287 287 287 288 288 288 288 288 288 288 288 288 287 287 287 287 287 288 288 288 288 289 289 288 288 288 288 289 289 289 289 288 288 288 288 288 288 288 288 288 287 287 287 287 288 288 288 288 288 288 288 288 288 287 287 287 287 287 287 287 287 287 287 287 287 287 287 287 287 288 288 288 289 289 289 289 289 290
287 287 287 287 287 287 287 287 287 287 287 287 287 287 287 287 287 287 287 287 287 287 287 287 287 287 288 288 288 288 289 289 289 289 289 289 289 289 289 289 289 289 289 289 288 288 288 288 288 288 287 287 287 288 288 288 288 288 288 288 288 287 287 287 287 287 287 287 287 287 287 287 287 287 287 287 287 288 288 288 289 289 289 289 289 289
287 287 287 287 287 287 287 287 287 287 287 287 287 287 287 287 287 287 287 287 287 287 287 287 287 287 287 287 288 288 288 289 289 289 289 289 289 289 289 289 289 289 289 289 288 288 288 288 288 288 288 288 288 288 288 288 288 288 288 287 287 287 287 287 287 287 287 287 287 287 287 287 287 287 287 287 287 287 288 288 288 289 289 289 289 289
287 287 287 287 287 287 287 287 287 287 287 287 287 286 287 287 287 287 287 287 287 287 287 287 287 287 287 287 287 288 288 288 288 289 289 289 289 289 289 289 289 289 289 289 289 288 288 288 288 288 288 288 288 288 288 288 288 288 287 287 287 287 287 287 287 287 287 287 287 287 286 286 286 286 287 287 287 287 288 288 288 289 289 289 289 289
287 287 287 287 287 287 287 287 287 287 287 286 286 286 286 286 287 287 287 287 287 287 287 287 287 287 287 287 287 288 288 288 288 289 289 289 289 289 289 289 289 289 289 289 289 289 288 288 288 288 288 288 289 289 289 288 288 288 288 287 287 287 287 287 287 287 287 287 287 287 286 286 286 286 286 287 287 287 288 288 288 288 289 289 289 289
287 287 287 287 287 287 287 287 287 286 286 286 286 286 286 286 286 286 287 287 287 287 287 287 287 287 287 288 288 288 288 288 289 289 289 289 289 289 289 289 289 289 289 289 289 289 289 289 289 289 289 289 289 289 289 289 288 288 288 287 287 287 287 287 287 287 287 287 287 286 286 286 286 286 286 286 287 287 287 288 288 288 288 289 289 289
287 287 287 287 287 286 286 286 286 286 286 286 286 286 286 287 287 287 287 287 287 287 287 287 287 287 288 288 288 288 288 288 289 289 289 289 290 290 289 289 289 289 289 289 289 289 289 289 289 289 289 289 289 289 289 289 288 288 288 287 287 287 287 287 287 287 287 287 287 286 286 286 286 286 286 286 287 287 287 288 288 288 288 288 289 289
287 287 287 287 286 286 286 286 286 286 287 287 287 287 287 287 287 287 287 287 287 288 288 288 288 288 288 288 288 288 288 288 289 289 289 289 290 290 290 289 289 289 289 289 289 289 289 289 289 289 289 289 289 289 288 288 288 288 287 287 287 287 287 287 287 287 286 286 286 286 286 286 286 286 286 286 286 287 287 287 288 288 288 288 288 288
287 287 286 286 286 286 286 286 286 286 287 287 287 287 287 287 287 288 288 288 288 288 288 288 288 288 288 288 288 288 288 288 289 289 289 289 289 289 289 289 289 289 289 289 289 289 289 289 289 289 289 289 289 289 288 288 288 288 288 287 287 287 287 287 286 286 286 286 286 286 286 286 286 286 286 286 286 287 287 287 288 288 288 288 288 288
287 286 286 286 286 286 286 286 286 287 287 287 287 287 287 287 288 288 288 288 288 288 288 288 288 288 288 288 288 288 288 288 288 289 289 289 289 289 289 289 289 289 289 289 289 289 289 289 289 289 289 289 289 288 288 288 288 288 288 287 287 287 287 286 286 286 286 286 286 286 286 286 286 286 286 286 286 287 287 287 287 288 288 288 288 288
287 286 286 286 286 286 286 286 287 287 287 287 287 287 287 287 288 288 288 288 288 288 288 288 288 288 288 288 288 288 288 288 288 288 288 288 288 289 289 289 289 289 289 289 289 289 289 289 289 289 288 288 288 288 288 288 288 288 288 287 287 287 287 286 286 286 286 286 286 286 286 286 286 286 286 286 286 286 287 287 287 287 288 288 288 288
286 286 286 286 286 286 286 287 287 287 287 287 287 287 287 287 287 288 288 288 288 288 288 288 288 288 288 288 288 288 288 288 288 288 288 288 288 288 288 289 289 288 288 288 288 289 289 289 289 288 288 288 288 288 288 288 288 288 287 287 287 287 286 286 286 286 286 286 286 286 286 286 286 286 286 286 286 286 286 287 287 287 287 287 287 288
286 286 286 286 286 286 287 287 287 287 287 287 287 287 287 287 287 287 287 288 288 288 288 288 288 288 288 288 288 288 288 288 288 288 288 288 288 288 288 288 288 288 288 288 288 288 289 289 289 288 288 288 288 288 288 288 287 287 287 287 286 286 286 286 286 286 286 286 286 286 286 286 286 286 286 286 286 286 286 286 287 287 287 287 287 287
286 286 286 286 286 286 287 287 287 287 287 287 287 287 287 287 287 287 287 288 288 288 288 288 288 288 288 288 288 288 288 288 288 288 288 289 289 289 288 288 288 288 288 288 288 288 288 288 289 289 289 288 288 288 288 287 287 287 286 286 286 286 286 285 285 286 286 286 286 286 286 286 286 286 286 286 286 286 286 286 286 286 286 287 287 287
Wind_Speed
24 24 24 24 23 23 24 24 24 24 23 22 22 23 23 23 22 22 22 23 24 25 25 25 24 24 24 24 24 23 23 23 22 21 20 18 17 17 16 16 15 15 15 15 14 14 14 14 15 15 15 16 17 18 19 20 20 20 20 19 19 18 17 16 16 16 17 18 19 19 19 18 17 16 16 15 15 15 15 15 15 15 15 14 14 14
27 27 26 26 26 26 26 26 25 24 23 22 22 22 22 21 21 21 22 23 24 24 25 24 24 23 23 23 23 23 22 22 21 21 19 18 17 16 16 16 15 15 14 14 14 13 13 13 13 13 13 14 14 15 16 17 17 18 18 18 18 17 17 16 16 16 16 16 17 16 16 16 15 15 15 15 16 16 16 16 16 17 16 16 16 16
28 27 27 26 25 25 26 26 25 24 23 22 21 20 19 19 20 21 22 23 24 25 24 24 23 23 23 23 22 22 22 21 21 20 19 18 17 16 16 16 15 15 14 14 13 12 12 12 12 12 12 12 12 13 14 14 15 16 16 17 17 17 17 16 16 16 16 16 16 16 16 15 15 16 16 16 17 17 18 18 19 19 19 18 18 17
28 27 26 25 24 25 25 25 24 23 22 21 20 18 18 19 20 22 23 25 25 25 25 24 23 23 22 22 22 21 21 21 21 20 19 18 17 16 16 16 15 15 14 13 12 12 11 11 11 11 11 12 12 12 13 13 14 15 16 16 17 17 17 17 17 18 18 18 18 18 17 17 17 17 18 18 19 19 20 20 21 21 20 20 19 19
27 26 25 24 24 25 25 25 24 23 22 21 20 20 20 21 22 24 25 26 26 25 25 23 23 22 22 22 21 21 20 20 20 19 18 17 17 16 16 16 15 14 14 13 12 12 11 11 12 12 12 12 12 13 13 14 15 15 16 17 17 18 18 19 19 19 19 19 19 19 19 19 19 19 19 20 20 21 21 22 22 22 21 21 20 20
28 26 25 25 25 26 26 26 25 25 24 23 22 22 23 24 25 25 26 26 26 25 24 23 22 22 22 21 21 20 20 20 20 19 18 17 16 16 16 16 15 14 13 13 12 12 12 12 12 13 13 13 14 14 15 15 16 17 18 18 19 19 20 20 20 20 20 20 20 20 20 21 21 21 21 21 21 22 22 22 22 21 21 20 20 20
29 27 26 25 26 26 26 26 26 26 25 25 25 26 26 26 26 26 26 26 25 25 24 23 22 22 21 21 20 20 20 20 20 19 18 17 16 16 16 16 15 14 13 13 12 12 13 13 14 14 15 15 16 16 17 17 18 18 19 20 20 20 21 21 21 21 21 21 21 21 21 21 21 21 21 21 21 21 21 21 21 20 20 19 19 19
31 29 27 26 26 26 26 26 26 26 26 27 27 27 27 26 26 26 26 26 25 24 23 22 22 21 21 20 19 19 20 20 19 18 17 16 16 16 16 16 15 15 14 13 13 13 13 14 15 15 16 17 17 18 18 19 19 20 20 20 21 21 21 21 21 21 21 21 21 21 21 21 21 21 21 21 20 20 20 20 19 19 19 18 18 18
29 28 27 27 27 27 27 26 26 26 27 28 27 26 25 24 24 24 24 24 24 23 23 22 21 21 20 20 19 19 20 19 19 18 17 16 17 17 17 16 16 15 14 14 14 14 15 15 16 17 17 18 18 19 19 19 20 20 20 20 20 21 20 20 20 20 20 20 20 20 20 20 20 20 19 19 19 18 18 18 17 17 17 17 17 17
23 24 24 25 25 26 27 27 27 27 28 27 25 23 22 22 22 22 22 22 22 22 21 21 21 21 20 20 20 20 19 19 18 17 17 17 17 17 17 16 16 15 14 14 15 15 16 16 17 18 18 18 18 18 18 18 19 19 19 19 19 19 19 19 18 18 18 18 18 18 18 18 18 18 17 17 17 17 16 16 16 16 16 16 16 16
18 18 19 21 22 22 24 25 25 26 26 25 22 20 18 19 20 21 22 21 21 20 20 20 20 20 20 20 20 20 19 18 18 17 17 17 17 17 17 16 16 15 15 15 16 16 17 17 18 18 18 18 18 17 17 17 17 17 17 17 17 17 17 17 17 17 17 16 16 16 16 16 16 16 16 15 15 15 15 15 14 14 15 15 15 15
15 15 16 17 18 18 19 20 21 21 22 21 21 20 19 18 18 19 21 21 21 20 20 19 19 19 20 20 20 19 18 18 17 17 17 17 17 17 17 16 16 16 16 16 17 17 17 18 18 18 17 17 16 16 15 15 16 16 16 16 16 15 15 15 15 15 15 15 15 15 15 15 15 14 14 14 14 13 13 13 13 13 13 14 14 14
15 15 15 15 16 16 17 17 17 18 19 20 21 22 21 20 18 18 19 20 20 20 19 19 19 19 19 19 19 19 18 17 17 17 17 18 18 17 17 16 16 16 16 17 17 18 18 17 17 17 16 16 15 15 14 14 14 15 15 15 14 14 14 14 14 14 14 14 14 14 14 13 13 13 13 12 12 12 12 12 12 12 12 13 13 13
17 17 16 17 17 17 17 17 17 18 19 20 20 21 21 20 19 18 19 20 20 19 19 18 18 19 19 19 19 19 18 17 17 18 18 18 18 18 17 16 16 17 17 17 18 18 17 17 16 16 16 15 15 14 14 14 14 14 14 14 13 13 13 13 13 13 13 13 13 13 12 12 12 12 12 11 11 11 11 11 11 11 11 12 12 13
19 18 18 18 18 18 18 18 18 18 19 20 21 21 21 20 19 19 20 20 20 19 18 19 19 19 20 19 19 19 18 18 18 18 19 19 19 18 17 16 17 17 17 17 17 17 17 16 16 15 15 15 15 14 14 13 13 13 13 13 13 13 12 12 12 12 12 12 12 12 11 11 11 11 11 10 10 10 10 10 10 11 11 12 12 12
20 20 20 20 20 19 19 19 19 19 19 20 21 21 21 20 20 20 21 21 20 19 19 20 20 21 21 20 20 19 19 19 19 19 19 19 19 18 17 16 16 17 17 17 17 17 16 15 15 15 15 15 15 14 14 13 13 13 13 12 12 12 12 11 11 11 11 11 11 11 10 10 10 10 10 10 10 10 10 10 10 11 11 11 12 12
21 21 20 20 20 19 19 19 18 18 18 19 19 19 20 20 20 21 21 20 20 20 21 21 22 22 22 21 21 20 20 19 19 20 19 19 18 17 17 16 16 17 17 17 17 16 15 15 15 15 15 15 15 14 14 13 13 13 12 12 12 11 11 11 10 10 10 10 10 10 9 9 9 9 9 9 9 10 10 10 10 11 11 11 12 12
21 20 19 19 19 19 18 18 17 17 17 17 17 18 19 20 21 21 21 20 20 21 22 23 23 23 23 23 22 20 19 18 19 19 19 19 18 17 17 16 17 17 17 17 16 16 15 15 15 15 15 15 15 14 14 13 13 12 12 12 11 11 11 10 10 10 10 9 9 9 9 9 9 9 9 9 9 9 9 10 10 10 11 11 11 11
20 19 19 18 18 18 18 17 17 17 17 17 17 18 19 20 21 21 21 21 21 22 22 23 23 23 23 23 21 19 17 17 18 18 19 18 18 17 17 17 17 17 17 17 16 15 15 15 15 15 15 14 14 14 13 13 12 12 12 11 11 10 10 10 10 9 9 9 9 8 8 8 8 9 9 9 9 9 9 9 10 10 10 10 10 10
19 19 18 18 18 18 18 17 17 17 17 17 17 18 19 21 21 22 22 22 22 23 23 23 23 23 23 22 19 16 16 16 17 18 19 19 18 17 17 17 17 17 17 16 15 15 14 15 14 14 14 14 13 13 13 12 12 12 11 11 10 10 10 9 9 9 9 8 8 8 8 8 8 8 9 9 9 9 9 9 9 10 10 10 10 10
18 18 18 18 18 18 18 18 17 18 18 18 18 18 19 21 22 23 24 24 24 24 24 23 23 23 22 20 16 14 16 16 17 18 18 18 18 17 16 16 17 17 17 16 14 14 14 14 14 13 13 13 13 12 12 12 11 11 11 10 10 10 9 9 9 9 9 8 8 8 8 8 8 9 9 9 9 9 9 9 9 9 9 9 9 9
19 19 19 19 19 19 19 19 19 18 18 18 19 19 20 21 22 23 24 24 24 24 24 23 23 22 20 17 15 15 17 17 17 18 18 18 17 16 16 16 16 16 16 14 13 13 13 13 13 13 12 12 12 12 11 11 11 10 10 10 9 9 9 9 9 8 8 8 8 8 8 8 9 9 9 9 9 9 9 9 9 9 9 9 9 9
20 20 20 20 20 20 20 20 20 20 19 19 19 20 20 20 21 22 22 22 22 23 23 22 21 19 17 17 17 17 18 18 18 18 17 17 17 16 15 15 15 15 15 13 12 12 12 12 12 12 12 11 11 11 11 10 10 10 10 9 9 9 9 8 8 8 8 8 8 9 9 9 9 9 9 9 9 9 9 9 9 9 9 9 9 9
20 21 21 21 20 20 21 21 21 20 20 20 20 20 20 20 20 19 19 19 20 20 20 19 18 18 18 19 19 19 18 18 18 18 17 17 16 15 14 15 15 14 13 12 11 12 12 12 12 11 11 11 11 10 10 10 10 9 9 9 9 9 9 9 9 9 9 9 9 9 9 9 9 9 9 9 9 9 9 9 9 9 9 9 9 9
20 20 20 20 20 20 20 20 20 20 20 20 20 20 20 20 19 19 18 18 18 19 19 19 19 19 20 20 20 19 19 18 17 17 17 16 15 14 14 14 14 13 12 11 11 12 12 11 11 11 11 10 10 10 10 10 10 9 9 9 9 9 9 9 9 9 9 9 9 9 9 9 9 9 9 9 9 9 9 9 9 9 9 9 9 9
19 19 19 18 19 19 19 19 19 19 19 18 18 19 19 19 19 18 19 19 20 20 20 20 20 21 21 21 20 19 18 17 17 16 16 15 15 14 13 13 13 12 12 11 11 12 11 11 11 11 10 10 10 10 10 10 9 9 9 9 9 9 9 9 9 9 9 9 9 9 9 9 9 9 9 9 9 9 9 9 9 9 9 9 9 9
18 18 17 17 18 18 18 18 18 17 17 17 17 17 18 18 19 20 20 21 21 21 21 21 22 22 21 21 20 19 17 17 16 16 15 15 14 14 13 13 12 12 12 12 12 11 11 11 11 10 10 10 10 10 10 10 10 9 9 9 9 9 9 9 9 9 9 9 9 9 9 10 10 10 10 10 10 10 10 9 9 9 9 9 9 9
17 16 16 17 17 17 17 17 17 16 16 16 17 17 18 19 20 21 22 21 21 20 21 22 22 22 21 20 19 17 16 16 16 15 15 14 14 13 13 12 12 12 12 12 11 11 11 11 10 10 10 10 10 10 10 10 10 9 9 9 9 9 9 9 9 9 9 9 9 9 10 10 10 10 10 10 10 10 10 9 9 9 9 9 9 9
16 16 16 16 17 17 17 17 17 17 17 17 17 18 19 20 20 20 20 19 19 20 21 21 21 20 19 18 17 16 16 16 16 15 15 14 14 13 12 13 12 12 12 11 11 11 11 10 10 10 10 10 10 10 10 10 10 9 9 9 9 9 9 9 9 9 9 9 9 10 10 10 10 10 10 10 10 9 9 9 9 9 9 9 10 10
16 16 16 17 17 17 18 18 18 18 18 19 19 19 20 20 20 19 18 18 18 19 20 20 19 18 17 16 16 16 17 16 16 15 15 14 13 13 12 13 12 12 11 11 11 11 10 10 10 9 9 9 9 10 10 10 9 9 9 9 10 10 9 9 9 9 9 9 10 10 10 10 10 10 10 9 9 9 9 9 9 9 9 9 9 10
17 17 17 17 18 18 19 19 19 19 20 20 20 21 21 20 19 19 18 18 18 19 19 18 18 17 16 16 17 17 18 16 15 15 14 14 13 13 13 13 12 12 11 11 11 11 10 10 9 9 9 9 9 9 9 9 9 9 9 9 10 10 9 9 9 9 9 10 10 10 10 10 10 10 10 10 9 9 9 9 9 9 9 9 9 9
17 17 18 18 18 19 19 20 20 20 20 20 20 20 20 19 19 19 19 19 19 19 18 17 17 16 16 16 17 17 16 14 14 14 14 14 13 12 12 12 12 11 10 10 10 10 9 9 9 9 8 8 8 8 8 8 8 9 9 9 10 9 9 9 9 10 10 10 10 10 10 10 10 10 10 10 10 10 10 10 10 10 10 9 9 9
17 17 18 18 19 19 20 20 20 20 20 20 20 19 19 18 18 18 19 19 19 19 18 17 17 16 16 16 16 16 14 13 13 14 14 13 13 12 12 12 11 11 10 10 10 9 9 9 9 8 8 8 8 8 8 8 8 8 9 9 9 9 9 9 10 10 10 10 10 10 10 10 11 11 11 11 11 10 10 10 10 10 10 10 9 9
17 17 18 18 19 19 20 20 20 20 19 19 19 18 18 18 18 18 19 19 19 18 18 17 17 16 16 16 16 15 13 13 13 14 13 13 12 12 11 11 11 11 10 10 10 9 9 9 9 8 8 8 8 8 8 8 8 8 9 9 10 10 10 10 10 10 11 11 11 11 11 11 11 11 11 11 11 11 11 11 11 11 11 10 10 10
17 18 18 19 19 19 20 20 20 19 19 18 18 18 18 18 18 18 18 18 18 18 17 17 16 16 15 15 15 14 13 13 13 13 13 12 11 11 11 11 10 10 10 10 9 9 9 9 9 9 8 8 8 8 8 8 9 9 9 10 10 10 10 11 11 11 11 11 11 11 11 11 11 12 12 12 12 12 12 12 12 11 11 11 11 11
18 18 19 19 19 20 20 20 19 19 19 19 19 18 18 18 18 18 18 18 18 17 17 16 15 15 15 14 14 14 13 13 12 12 12 11 11 11 11 10 10 10 9 9 9 9 9 9 9 8 8 9 9 9 9 9 9 9 10 10 10 11 11 11 12 12 12 13 13 12 12 12 12 12 13 13 13 13 12 12 12 12 12 12 12 11
19 19 19 20 20 20 20 20 19 19 19 19 19 18 18 18 18 18 18 17 17 16 16 15 15 14 14 14 13 13 13 13 12 12 12 11 11 11 10 10 10 10 9 9 9 9 9 9 8 8 9 9 9 9 8 9 9 10 11 11 11 11 12 12 12 13 13 14 14 14 13 13 13 13 13 13 13 13 13 13 13 13 12 12 12 12
19 20 20 20 20 20 20 20 20 19 19 19 19 18 18 18 18 18 17 17 17 16 15 15 15 14 14 14 13 13 12 12 12 12 12 11 11 11 10 10 10 10 10 10 9 9 9 9 9 9 9 9 9 9 8 9 10 10 11 11 11 12 12 12 13 13 14 14 15 14 14 14 13 13 13 13 13 13 13 13 13 13 13 13 13 13
20 20 20 20 20 20 20 20 20 19 18 18 18 18 18 18 17 17 17 16 16 15 15 15 14 14 14 14 13 13 12 12 12 12 11 11 11 11 11 11 11 10 10 10 10 9 9 9 9 9 8 8 9 9 9 9 10 10 11 11 12 12 13 13 13 14 14 15 15 15 15 14 14 14 14 13 13 14 14 14 14 13 13 14 14 14
21 20 20 20 20 20 20 19 19 18 18 17 17 17 17 17 17 17 16 16 15 15 14 14 14 14 14 13 13 13 12 12 12 12 11 11 11 11 11 11 11 11 10 10 10 9 9 9 9 9 9 9 9 9 9 10 10 10 11 12 12 13 13 13 14 14 15 15 16 16 16 15 15 14 14 14 14 14 14 14 14 14 14 14 14 15
21 20 20 20 20 19 19 18 18 17 17 17 18 18 17 17 17 17 16 15 15 14 14 14 14 14 13 13 13 12 12 12 12 12 12 11 11 11 11 11 11 11 10 10 10 10 9 9 9 9 9 9 9 9 10 10 10 10 11 11 12 13 13 14 14 15 15 16 16 16 16 16 16 15 15 15 15 14 14 14 14 14 14 15 15 15
20 20 20 19 19 19 18 18 18 18 18 18 18 18 18 18 17 17 16 16 15 15 14 14 14 14 13 13 13 12 12 12 12 12 12 12 12 12 11 11 11 11 10 10 10 10 9 9 9 9 9 10 10 10 10 10 10 10 10 11 11 12 13 14 15 15 15 16 17 17 17 17 17 16 16 16 15 15 14 14 14 15 15 15 16 16
20 20 19 19 18 18 18 18 18 18 18 18 18 18 18 18 17 17 17 16 16 15 15 14 14 14 14 14 13 13 13 12 12 12 12 12 12 11 11 11 11 11 10 10 10 10 10 10 10 10 10 10 10 10 10 10 9 10 10 11 11 12 13 14 15 15 15 16 17 17 18 18 18 17 17 16 16 15 15 15 15 15 15 15 16 16
19 19 18 18 17 17 18 18 18 19 19 19 19 19 18 18 18 17 17 16 16 15 15 15 14 14 14 14 13 13 13 13 13 12 12 12 12 11 11 11 11 11 10 10 10 10 10 10 10 10 11 10 10 10 10 10 9 10 10 11 11 12 13 14 15 15 16 16 17 18 18 18 18 18 17 17 16 16 15 15 15 15 16 16 16 16
19 19 18 18 18 18 18 19 19 19 19 19 19 18 18 18 17 17 17 16 16 15 15 15 14 14 14 14 13 13 13 13 13 12 12 12 12 11 11 11 11 10 10 10 10 10 10 10 11 11 11 11 11 10 10 10 10 10 11 11 12 12 13 15 15 15 16 17 18 18 18 18 18 18 18 17 17 16 16 16 16 16 16 16 16 17
19 19 18 18 19 19 19 19 19 19 19 19 18 18 18 17 17 17 16 16 15 15 15 14 14 14 13 13 13 13 13 13 13 12 12 12 12 11 11 11 11 10 10 11 11 11 11 11 11 11 11 11 11 11 11 10 10 11 11 11 12 12 13 14 15 15 16 17 18 19 19 18 18 18 18 18 17 17 17 16 16 16 16 16 16 17
20 19 19 19 20 20 20 19 19 19 19 19 18 18 17 17 16 16 16 15 15 14 14 14 14 13 13 13 13 12 12 12 12 12 12 11 11 11 11 10 11 11 11 11 11 11 11 12 12 11 11 11 11 11 11 11 11 11 11 12 12 12 13 13 14 15 16 17 18 19 19 18 18 18 18 18 17 17 17 17 16 16 16 16 16 17
20 20 20 20 20 20 20 20 20 19 19 19 18 18 17 17 16 16 15 15 14 14 14 14 13 13 13 13 13 12 12 12 12 12 11 11 10 10 10 10 11 11 11 12 12 12 12 12 11 11 11 11 11 12 12 12 11 11 11 12 12 12 12 13 13 14 15 16 17 18 18 18 18 18 18 18 17 17 17 17 17 16 16 16 17 17
20 20 20 20 20 20 20 20 20 19 19 19 18 17 17 16 16 15 15 15 14 14 14 14 13 13 13 13 13 13 12 12 11 11 11 10 10 10 10 11 11 11 12 12 12 12 12 12 12 12 12 11 11 12 12 12 12 12 12 11 11 11 11 12 13 14 14 15 16 17 17 17 17 17 17 17 17 17 17 17 17 17 17 17 17 17
21 21 20 20 20 20 20 20 20 19 19 18 18 17 17 16 16 15 15 15 14 14 14 14 14 13 13 13 13 12 12 11 11 11 10 10 10 10 11 11 11 12 12 12 13 13 13 13 13 12 12 12 12 12 12 12 12 12 11 11 11 10 11 11 12 13 14 14 15 16 16 16 16 16 16 17 17 17 17 17 17 17 17 17 18 18
21 21 21 21 21 20 20 20 19 19 18 18 17 17 16 16 16 15 15 15 14 14 14 14 14 13 13 13 12 12 11 11 10 10 10 9 10 10 11 12 12 12 12 13 13 13 13 13 13 13 12 12 12 12 12 12 12 12 11 10 10 10 10 11 12 12 13 13 14 14 15 15 15 15 16 16 17 17 17 18 18 18 18 18 18 18
Wind_Direction
258 258 257 256 255 255 255 256 258 260 262 262 262 261 258 256 253 252 252 252 252 251 251 251 251 252 254 257 259 261 263 264 264 263 263 265 268 271 273 273 271 266 261 256 251 247 245 245 246 248 249 249 248 247 246 247 249 252 257 262 266 269 271 269 267 266 266 266 266 266 266 267 268 269 270 272 274 276 278 279 278 277 275 272 267 261
260 260 260 259 259 259 258 258 258 259 261 261 260 258 255 252 251 251 251 251 250 249 249 249 250 252 254 256 258 260 261 262 261 261 262 264 267 270 272 271 269 264 259 253 249 246 245 246 247 249 250 250 250 250 250 251 253 255 258 261 263 265 266 267 267 267 268 268 268 268 268 268 268 268 270 272 274 276 277 277 277 276 274 270 266 261
261 262 261 261 260 259 259 259 258 257 258 258 257 254 252 250 250 250 250 250 249 248 247 247 249 251 253 255 256 257 258 259 259 260 261 264 267 269 270 269 266 261 256 251 247 245 245 246 247 249 250 250 251 251 251 252 253 254 255 257 258 260 262 264 266 268 269 270 271 271 271 271 271 272 273 274 276 277 277 277 276 275 273 270 265 260
261 261 260 259 258 258 258 257 256 255 255 254 253 252 251 251 250 249 249 248 248 247 246 247 248 250 252 253 254 254 255 256 257 259 261 264 266 267 267 265 262 257 253 249 246 244 244 245 246 247 248 249 249 250 250 250 251 252 253 254 256 258 261 264 266 268 270 271 273 274 274 274 275 275 276 276 276 277 277 276 275 274 272 269 265 260
261 260 258 257 255 255 255 254 253 253 253 254 255 256 255 253 250 248 246 246 245 245 245 246 247 248 250 251 251 251 252 253 255 257 261 263 265 265 264 262 258 254 250 247 245 244 243 244 245 247 248 249 250 250 251 252 253 253 255 256 258 260 262 264 266 268 269 271 272 273 274 275 275 275 276 276 276 276 275 275 274 273 271 268 265 260
261 260 259 257 256 255 254 252 251 251 253 257 260 261 259 255 251 246 243 242 242 242 243 244 246 246 247 247 248 249 250 252 254 256 259 262 263 262 260 258 255 251 248 246 244 244 244 245 246 248 249 251 252 253 254 255 256 258 259 260 261 262 264 265 266 267 268 269 271 272 273 273 274 274 274 274 274 274 273 273 272 271 269 267 263 260
260 260 260 259 258 257 255 253 251 252 254 259 262 262 259 254 249 244 241 240 240 241 242 243 244 244 245 245 245 246 248 250 253 255 258 259 259 258 256 253 251 249 247 246 245 245 246 247 249 250 252 254 256 257 258 259 260 261 262 262 263 263 264 264 265 266 267 268 269 270 270 271 271 272 272 272 271 271 270 270 269 268 266 264 261 258
256 259 259 259 259 258 257 255 253 253 255 258 260 259 255 251 246 242 240 240 240 240 241 241 242 242 242 242 243 244 247 250 252 255 256 256 254 253 251 249 248 247 246 246 247 248 249 251 253 254 256 258 260 261 262 263 263 263 263 263 263 263 263 264 264 264 265 266 267 267 268 268 269 269 269 269 268 268 267 266 265 264 262 260 258 256
254 256 257 258 259 259 258 256 255 254 255 256 256 254 250 247 243 241 240 239 238 238 238 238 238 239 240 240 240 242 245 248 251 253 254 253 251 249 247 246 246 246 247 248 250 251 253 255 257 259 261 262 263 265 265 265 265 264 263 263 262 263 263 263 263 263 264 264 264 265 265 266 266 266 266 265 265 264 263 261 260 259 258 257 256 254
253 255 256 257 257 257 257 257 255 253 252 252 250 247 245 243 241 240 238 236 236 236 236 235 235 236 237 238 239 240 243 246 249 250 250 250 249 248 246 246 246 248 250 251 254 256 258 260 262 264 265 266 266 267 267 266 265 264 264 263 263 262 262 262 262 262 263 263 263 263 263 263 264 264 263 263 262 260 259 257 256 255 254 254 253 252
254 254 255 255 255 254 254 254 253 251 249 245 240 234 232 234 236 237 236 235 235 234 234 233 233 234 236 237 239 241 244 246 247 248 247 247 247 246 246 247 248 250 253 255 258 260 262 264 265 266 267 267 267 267 267 266 265 264 264 263 263 262 262 262 262 262 262 262 262 262 262 262 262 262 261 260 259 258 256 254 253 252 251 251 251 250
256 256 256 256 255 254 252 250 249 247 242 236 229 225 223 223 226 231 235 236 235 233 233 232 233 234 236 239 241 243 245 246 246 245 244 244 244 244 245 247 250 253 256 258 261 263 264 266 267 267 267 267 267 266 265 265 264 264 263 263 262 262 261 261 261 261 261 261 261 261 261 261 260 260 259 258 256 255 254 252 251 250 249 249 249 249
257 257 258 258 256 254 252 248 243 239 234 228 225 222 221 219 220 225 230 233 234 234 233 233 234 236 238 241 243 245 246 245 243 241 239 239 240 241 243 246 250 254 257 261 263 265 266 266 267 267 268 267 266 265 264 263 263 263 262 261 260 260 259 259 259 259 259 258 258 258 258 258 257 257 256 255 254 253 252 251 249 248 247 247 247 247
257 257 257 257 255 253 251 247 241 234 229 225 222 220 221 221 221 223 227 230 232 233 233 234 236 239 241 242 244 244 244 242 239 238 236 236 237 239 241 245 250 254 258 261 264 265 266 267 267 268 268 267 267 265 264 263 262 261 260 259 258 257 256 255 255 255 255 254 254 254 254 254 253 253 253 252 252 251 251 250 248 247 246 245 245 245
256 257 257 256 255 253 250 247 241 235 230 225 221 220 220 221 221 223 225 228 231 231 232 234 237 240 242 242 242 241 239 237 236 235 235 236 238 240 242 246 250 255 258 260 263 265 266 267 267 268 268 268 268 267 265 263 262 260 258 257 255 254 253 252 251 251 250 250 250 250 250 250 250 250 250 250 250 250 249 249 247 246 245 244 244 244
253 254 254 253 253 251 249 247 243 237 232 228 225 223 223 223 222 222 224 227 228 229 230 232 235 238 240 240 239 237 235 233 233 234 235 236 239 241 244 247 251 255 258 260 261 263 265 265 266 267 268 268 268 268 266 264 261 259 257 255 254 252 251 250 250 249 248 247 247 247 248 248 248 248 248 248 249 248 248 247 246 245 243 243 243 243
249 250 250 250 249 248 247 246 243 240 236 233 231 229 228 227 225 224 224 226 227 228 229 231 233 235 237 237 236 234 232 230 231 233 235 237 240 243 246 248 251 255 257 258 260 261 262 263 264 265 266 267 267 267 265 263 261 258 256 254 253 252 251 251 250 249 248 247 247 247 247 247 246 247 247 247 247 247 246 246 244 243 242 242 241 242
247 247 247 247 247 247 246 244 242 240 239 237 235 232 229 228 227 226 225 226 227 228 230 233 234 236 237 236 235 234 231 228 229 233 237 239 242 244 247 249 251 253 255 256 257 259 260 261 262 263 264 264 264 263 262 261 259 257 255 254 253 252 252 252 251 250 249 249 248 248 247 246 246 246 245 245 246 245 245 244 243 242 241 240 240 240
245 245 245 245 246 246 246 245 243 242 240 239 235 230 226 224 224 224 224 225 226 229 231 234 236 238 238 238 238 236 232 229 230 234 238 242 244 245 247 249 251 252 253 254 255 256 257 258 259 260 260 260 260 259 258 257 255 254 253 253 252 252 252 252 252 251 250 249 249 247 246 245 244 244 244 244 244 243 242 242 241 240 239 238 237 237
244 243 243 243 245 246 247 247 245 244 242 240 237 230 224 221 219 219 220 221 224 227 231 234 236 237 238 241 241 236 230 229 232 235 239 243 245 245 246 247 248 250 251 252 253 254 255 255 256 256 256 256 255 254 253 252 251 251 251 251 251 251 251 251 251 250 249 248 246 244 242 241 242 242 242 242 241 241 240 239 238 237 237 235 234 233
245 245 244 244 245 247 248 249 247 245 243 240 237 231 226 221 218 217 217 218 221 224 228 231 234 236 238 239 237 231 226 228 231 235 240 243 245 245 244 245 246 248 249 250 251 251 252 252 252 251 251 250 249 248 248 247 247 247 248 248 249 249 249 249 248 248 246 245 242 239 238 237 238 238 239 239 238 237 237 236 235 234 233 231 230 228
247 248 248 248 247 248 248 249 248 245 243 239 235 231 228 223 219 218 217 218 220 223 226 228 232 234 235 234 231 228 227 229 232 236 240 242 243 243 241 243 244 246 248 248 248 248 247 247 247 246 245 244 243 243 243 243 244 244 245 245 246 246 246 246 245 244 242 240 238 235 234 233 234 235 236 236 236 234 233 233 232 232 230 228 227 226
248 249 250 250 249 248 248 248 247 245 242 238 234 231 229 226 223 221 220 220 222 225 228 231 233 233 232 229 228 229 230 231 233 236 238 240 241 240 239 240 242 244 246 246 244 243 242 241 241 240 239 238 238 239 239 239 240 241 242 242 242 243 242 242 241 239 238 236 234 232 231 230 230 232 233 233 233 232 231 230 230 229 228 227 226 226
247 247 248 248 248 247 247 247 246 244 241 237 233 229 227 227 226 225 225 225 225 226 228 229 230 230 229 228 229 230 231 232 233 235 236 238 239 238 237 238 240 242 243 242 239 238 237 236 235 234 233 233 233 234 235 236 237 238 239 239 239 239 238 238 237 236 234 233 231 230 229 229 229 230 230 231 231 231 230 229 229 228 228 227 226 226
244 244 244 245 245 246 246 246 244 242 240 236 232 227 224 222 221 221 221 221 222 222 223 224 225 226 227 228 229 229 230 231 232 233 234 235 236 236 234 235 237 238 238 236 233 232 231 230 229 229 228 229 230 231 232 233 234 235 236 236 236 237 236 235 234 234 232 231 230 229 228 228 228 229 229 230 231 231 231 231 230 229 229 228 227 227
241 241 241 242 243 243 243 243 241 239 237 235 231 226 221 218 216 216 216 217 218 218 219 221 223 225 227 227 228 228 229 229 230 230 231 232 233 233 232 232 233 233 232 229 228 227 226 225 225 224 225 225 227 228 229 231 232 233 234 235 235 235 235 234 233 232 232 231 230 229 229 228 228 228 229 230 231 233 233 234 233 233 232 231 230 229
239 239 240 241 241 241 240 239 238 236 234 232 229 225 221 217 216 216 217 218 218 218 218 220 222 224 226 226 226 227 227 226 227 228 228 229 230 230 228 228 228 227 225 224 223 222 222 221 221 222 222 224 226 227 229 230 231 232 233 234 235 235 235 234 234 233 232 232 231 231 230 230 229 229 229 229 231 233 234 236 236 236 235 235 234 233
237 237 239 240 240 240 238 236 234 233 231 229 227 225 223 221 219 218 219 220 220 220 220 221 222 223 224 224 224 224 223 223 223 224 225 225 227 226 224 223 223 222 220 219 219 219 219 219 220 220 222 224 226 228 229 231 232 233 234 234 235 235 235 235 234 234 234 234 234 233 233 232 231 231 230 230 232 233 235 236 237 237 237 237 236 236
234 235 236 238 238 238 236 234 232 230 228 227 225 224 224 223 223 223 225 226 225 223 222 223 224 224 224 223 222 221 220 220 220 221 221 223 223 222 220 220 219 218 216 215 215 216 217 218 219 221 222 224 227 229 230 232 233 234 235 236 236 237 237 237 237 237 237 238 237 237 236 235 234 233 233 233 234 236 237 238 239 239 238 237 236 235
233 233 235 236 236 235 234 232 230 228 227 225 224 224 224 224 224 225 227 228 227 226 225 225 225 224 222 220 218 218 218 218 217 217 218 220 220 218 216 217 217 216 214 213 214 216 218 220 221 223 225 227 228 230 231 233 235 236 237 238 239 240 240 240 240 241 241 241 241 240 240 239 238 237 237 237 238 240 241 242 242 242 240 238 236 236
232 232 233 234 234 234 233 231 230 228 226 225 224 224 224 224 223 222 221 222 224 225 226 226 224 221 219 216 216 217 218 215 214 215 216 218 217 215 214 217 217 216 215 214 215 218 223 224 225 227 229 230 231 232 234 235 237 238 240 242 244 245 245 245 245 245 244 244 244 244 243 243 242 242 242 243 244 245 246 247 247 245 244 241 239 237
231 232 232 232 233 232 232 231 230 228 227 226 226 225 225 224 222 220 219 218 219 220 221 222 220 219 217 216 217 219 219 214 213 215 216 216 215 213 214 216 217 217 217 217 218 221 226 228 228 229 233 234 235 236 237 239 240 242 244 247 249 251 251 250 250 249 248 247 246 246 246 246 246 246 247 248 249 250 250 251 251 249 247 245 242 239
232 232 232 231 231 231 231 230 230 229 228 227 226 225 225 223 221 219 219 218 218 217 217 217 217 217 216 217 218 219 218 214 213 214 215 215 214 212 213 215 216 217 218 219 220 223 227 230 231 232 235 237 239 240 242 244 246 247 250 251 253 255 255 254 254 253 251 250 249 248 248 247 248 249 250 252 252 253 253 254 253 252 250 248 246 242
233 232 232 231 231 230 230 229 228 227 227 226 225 224 223 221 219 218 218 219 218 217 216 215 216 217 218 218 219 218 215 211 210 211 212 213 212 212 212 214 215 216 218 220 222 225 229 232 233 235 236 240 244 246 247 249 251 253 254 256 257 257 258 257 257 256 255 253 251 249 248 248 249 251 252 254 255 255 255 255 255 254 252 250 248 245
234 233 233 232 230 229 228 227 225 224 222 222 222 221 220 219 217 217 217 218 218 217 217 216 216 216 217 219 219 218 214 210 209 209 210 210 210 211 212 213 214 215 218 220 222 225 228 231 234 236 238 241 245 248 250 252 254 257 258 259 260 260 260 260 260 259 258 256 254 251 249 248 249 250 253 255 256 256 256 256 255 254 253 251 248 246
235 234 232 231 229 227 226 224 223 221 219 218 218 218 217 216 216 216 216 217 217 217 217 217 216 216 215 216 216 215 213 210 209 209 209 209 209 210 211 212 214 215 217 219 222 224 226 229 233 237 240 242 245 248 250 254 257 259 260 261 262 262 262 262 261 261 260 258 257 254 252 249 249 250 252 254 255 256 256 255 255 254 253 251 249 246
235 234 232 230 227 225 223 222 220 219 217 216 216 216 215 215 215 215 215 216 217 217 216 216 215 215 214 214 212 210 209 207 208 209 210 210 210 210 211 212 215 216 217 219 221 223 226 228 232 236 240 244 247 250 251 254 258 261 261 263 264 264 264 263 262 262 261 260 259 258 255 253 251 250 251 253 254 254 255 254 253 252 251 251 249 247
234 232 230 228 225 223 221 219 219 218 217 216 215 214 214 214 214 214 215 215 215 215 214 214 213 213 213 212 211 209 207 206 207 209 211 212 212 212 212 214 216 217 218 219 221 223 226 229 231 235 239 244 250 254 255 256 258 261 264 266 266 266 266 265 265 264 263 263 262 261 259 257 255 253 252 252 252 253 253 252 252 251 251 250 249 248
231 229 227 225 223 221 219 218 217 216 215 214 213 213 213 213 213 213 213 213 213 213 212 212 211 211 211 211 210 209 208 208 208 210 212 213 214 214 215 216 217 218 220 221 223 224 226 229 233 236 240 244 249 253 257 259 261 263 266 268 268 268 267 267 267 266 266 265 265 264 263 261 259 256 254 252 251 251 251 251 250 250 250 250 250 249
230 228 225 223 220 219 217 216 215 214 212 211 211 211 211 211 211 211 211 211 211 210 210 210 210 210 210 210 209 209 209 209 210 211 213 215 216 216 217 218 219 221 222 223 224 226 229 232 236 240 243 246 249 253 256 259 261 264 267 268 268 268 269 269 268 268 268 267 267 266 266 264 262 259 256 254 252 251 250 250 250 250 249 249 249 249
228 226 223 220 218 216 215 213 211 210 209 208 208 208 208 208 209 209 209 208 208 208 208 208 208 209 209 209 209 209 209 210 211 212 214 215 217 217 218 220 222 224 225 226 228 229 232 235 239 244 247 251 253 256 258 259 261 263 266 267 269 270 270 269 269 269 269 269 269 268 267 265 263 261 258 255 252 250 249 249 249 249 250 250 250 249
226 224 221 218 215 213 211 209 207 206 206 205 205 205 205 206 207 208 208 207 208 208 208 208 209 209 210 210 210 210 210 211 211 213 214 215 217 218 219 221 223 225 227 229 231 233 236 239 243 247 251 254 256 259 261 262 263 264 265 266 268 270 270 269 268 268 268 268 268 268 266 265 264 262 259 256 254 252 250 249 249 249 250 250 251 251
223 221 219 216 213 210 207 206 205 204 204 203 203 202 202 203 203 205 205 205 206 207 208 209 209 209 209 209 210 210 211 212 212 213 215 216 217 219 221 223 225 227 229 231 234 238 241 243 246 249 252 255 257 260 262 265 265 265 265 265 266 268 268 269 269 268 266 266 266 266 265 264 263 262 260 258 256 254 252 250 250 250 250 251 251 251
219 218 215 212 209 207 205 204 203 202 202 201 201 200 200 200 201 202 203 203 204 205 206 207 208 208 208 208 208 209 211 213 214 215 216 218 219 221 223 225 227 229 232 233 237 241 243 246 248 250 252 255 258 260 262 265 267 267 266 265 265 264 265 268 269 268 266 265 265 265 264 263 263 262 261 260 258 256 253 252 251 251 251 251 251 252
216 214 212 209 207 205 204 203 202 201 201 200 200 199 198 199 199 200 200 201 202 203 204 205 206 207 209 209 209 210 210 212 215 216 218 220 221 223 225 227 229 232 235 237 239 242 245 248 250 251 253 256 258 260 263 266 267 268 267 266 265 264 265 266 267 267 266 266 265 264 263 263 263 262 261 260 258 256 255 254 253 253 253 253 253 252
213 210 209 207 206 205 204 202 201 201 200 200 199 198 198 198 198 199 199 200 201 202 203 205 206 208 210 211 211 212 212 214 215 217 219 220 222 224 227 229 232 235 237 240 242 244 246 248 250 253 255 257 259 261 263 265 266 267 268 268 266 265 264 265 265 265 265 265 265 265 265 264 263 262 261 260 258 257 256 255 254 254 254 254 253 253
209 208 207 206 205 204 203 202 201 200 200 200 199 198 198 198 198 199 200 200 201 202 203 205 207 209 210 212 213 214 215 216 217 218 219 221 223 226 228 231 235 237 239 241 243 245 246 247 250 253 256 259 262 264 265 266 266 267 267 268 267 266 265 265 264 263 263 263 264 265 266 266 265 263 261 261 260 259 258 257 256 255 255 254 254 253
206 206 206 205 205 204 203 202 201 201 200 200 199 198 198 198 199 200 201 202 202 203 205 206 207 209 210 211 213 215 216 218 219 221 221 223 225 228 232 235 237 239 241 242 244 245 246 247 249 251 254 257 261 265 267 268 268 267 267 268 268 267 265 264 263 262 262 262 263 265 266 266 265 265 264 264 262 261 260 259 258 256 256 255 255 254
205 205 205 205 205 204 203 202 201 201 201 200 199 198 199 199 200 200 201 202 203 204 205 206 207 208 209 211 212 214 216 219 221 223 224 226 228 232 235 238 240 242 243 244 245 245 246 246 247 249 251 254 258 263 267 269 269 269 268 268 268 266 265 263 263 262 261 262 263 265 266 267 267 267 267 266 265 264 263 262 260 259 257 256 255 254
205 204 204 205 205 205 204 203 202 201 201 200 199 199 199 199 200 200 201 201 203 203 204 204 205 207 208 210 211 214 216 219 222 225 228 230 233 236 238 241 242 243 245 247 247 248 249 249 249 249 251 254 258 261 265 268 269 270 269 268 267 265 263 262 262 261 262 263 264 266 267 267 268 268 268 268 267 266 265 264 263 262 260 258 257 256
205 204 204 204 205 205 204 203 203 202 201 201 200 200 200 199 200 199 200 200 201 201 202 203 204 205 207 209 210 213 215 218 222 227 231 235 238 241 243 244 245 246 247 249 250 251 253 253 254 254 253 254 257 260 263 266 268 270 269 267 265 263 261 261 261 262 262 263 265 266 267 267 268 268 267 267 267 266 266 265 264 263 262 260 259 257